#timestamp,LO_Frequency,Hit,StdDev 
1526133615.7,286046999.7,N
1526133635.5,286047000.9,N
1526133655.4,286047000.9,N
1526133675.2,286047000.6,N
1526133695.1,286047000.0,N
1526133696.0,286047000.0,N
1526133715.8,286047000.3,N
1526133735.6,286047001.2,N
1526133755.5,286047001.1,N
1526133775.3,286047000.2,N
1526133795.1,286046999.9,N
1526133815.9,286047000.6,N
1526133835.7,286047001.0,N
1526133855.6,286047000.0,N
1526133875.4,286047000.3,N
1526133895.2,286046999.7,N
1526133915.1,286047002.7,N
1526133916.0,286047002.7,N
1526133935.8,286046999.7,N
1526133955.7,286046999.8,N
1526133975.5,286047002.7,N
1526133995.3,286046999.8,N
1526134015.2,286047001.6,N
1526134035.9,286047001.5,N
1526134055.7,286047002.5,N
1526134075.6,286047002.0,N
1526134095.4,286047002.0,N
1526134115.3,286047002.5,N
1526134135.1,286047002.6,N
1526134136.0,286047002.6,N
1526134155.8,286047000.0,N
1526134175.7,286046998.2,N
1526134195.5,286046998.5,N
1526134215.3,286047000.7,N
1526134235.2,286047000.9,N
1526134255.0,286047002.1,N
1526134255.9,286047002.1,N
1526134275.8,286047002.6,N
1526134295.6,286047001.4,N
1526134315.4,286047001.9,N
1526134335.3,286047002.0,N
1526134355.1,286047002.1,N
1526134375.9,286047001.9,N
1526134395.7,286047002.5,N
1526134415.5,286047000.5,N
1526134435.4,286047000.9,N
1526134455.2,286046998.1,N
1526134475.0,286047001.2,N
1526134475.9,286047001.2,N
1526134495.8,286047000.7,N
1526134515.6,286047001.2,N
1526134535.5,286047001.2,N
1526134555.3,286046998.1,N
1526134575.1,286047000.1,N
1526134595.9,286047002.1,N
1526134615.7,286047002.0,N
1526134635.5,286047002.2,N
1526134655.4,286047002.1,N
1526134675.2,286047002.4,N
1526134695.1,286047002.0,N
1526134696.0,286047002.0,N
1526134715.8,286047001.9,N
1526134735.6,286047001.5,N
1526134755.5,286047003.6,Y
1526134775.3,286047002.5,P
1526134795.2,286047002.8,P
1526134815.9,286047002.7,P
1526134835.7,286047002.6,Y
1526134855.6,286046996.5,P
1526134875.4,286046999.4,N
1526134895.2,286046998.8,N
1526134915.1,286046999.0,N
1526134916.0,286046999.0,N
1526134935.8,286046999.3,N
1526134955.7,286046999.3,N
1526134975.5,286046998.3,N
1526134995.3,286046998.3,N
1526135015.2,286046998.8,N
1526135035.0,286046999.0,N
1526135035.9,286046999.0,N
1526135055.7,286046997.7,N
1526135075.6,286046996.5,N
1526135095.4,286046999.0,N
1526135115.3,286046998.9,N
1526135135.1,286046996.7,N
1526135155.8,286046999.5,N
1526135175.7,286046996.9,N
1526135195.5,286046999.2,N
1526135215.3,286046999.4,N
1526135235.2,286046998.4,N
1526135255.0,286046997.0,N
1526135255.9,286046997.0,N
1526135275.8,286046998.0,N
1526135295.6,286046995.3,Y
1526135315.5,286046998.8,P
1526135335.3,286046998.3,P
1526135355.1,286046998.2,P
1526135375.9,286046999.9,N
1526135395.7,286047000.0,N
1526135415.5,286047001.1,N
1526135435.4,286046998.5,N
1526135455.2,286047001.1,N
1526135475.0,286047000.7,N
1526135476.0,286047000.7,N
1526135495.8,286047000.4,N
1526135515.6,286046998.1,N
1526135535.5,286047000.8,N
1526135555.3,286046998.2,N
1526135575.1,286046998.3,N
1526135595.9,286046999.6,N
1526135615.7,286046997.0,N
1526135635.6,286046999.6,N
1526135655.4,286046999.1,N
1526135675.2,286046998.8,N
1526135695.1,286047001.0,N
1526135696.0,286047001.0,N
1526135715.8,286047001.2,N
1526135735.6,286047000.7,N
1526135755.5,286047000.9,N
1526135775.3,286047000.5,N
1526135795.2,286047000.1,N
1526135815.9,286047000.5,N
1526135835.7,286047000.4,N
1526135855.6,286046998.2,N
1526135875.4,286047001.0,N
1526135895.2,286046998.1,N
1526135915.1,286046998.1,N
1526135916.0,286046998.1,N
1526135935.8,286046998.2,N
1526135955.7,286046997.0,N
1526135975.5,286046996.6,N
1526135995.3,286046998.0,N
1526136015.2,286046996.5,N
1526136035.0,286046996.5,N
1526136035.9,286046996.5,N
1526136055.8,286046998.7,N
1526136075.6,286047000.8,N
1526136095.4,286047000.9,N
1526136115.3,286047000.9,N
1526136135.1,286047001.1,N
1526136155.8,286046997.0,N
1526136175.7,286046997.2,N
1526136195.5,286046999.1,N
1526136215.4,286046998.6,N
1526136235.2,286046999.0,N
1526136255.0,286046999.3,N
1526136255.9,286046999.3,N
1526136275.8,286046997.1,N
1526136295.6,286046997.4,N
1526136315.5,286046997.3,N
1526136335.3,286046997.1,N
1526136355.1,286046996.6,N
1526136375.9,286046998.3,N
1526136395.7,286046998.1,N
1526136415.5,286046998.3,N
1526136435.4,286046999.2,N
1526136455.2,286046996.7,N
1526136475.1,286046996.6,N
1526136476.0,286046996.6,N
1526136495.8,286046996.9,N
1526136515.6,286046997.3,N
1526136535.5,286046997.1,N
1526136555.3,286046998.0,N
1526136575.2,286046995.8,N
1526136595.9,286046995.9,N
1526136615.7,286046996.2,N
1526136635.6,286046995.0,Y
1526136685.4,286047000.6,E
1526136695.4,286046998.6,N
1526136715.2,286046998.6,P
1526136735.0,286047000.4,P
1526136735.9,286047000.4,N
1526136755.8,286047000.7,N
1526136775.6,286047000.6,N
1526136795.5,286047000.3,N
1526136815.3,286047000.0,N
1526136835.1,286046999.8,N
1526136855.9,286047001.8,N
1526136875.7,286047002.1,N
1526136895.5,286047002.1,N
1526136915.4,286047002.7,N
1526136935.2,286047001.3,N
1526136955.1,286047004.4,Y
1526136956.0,286047004.4,P
1526136975.8,286047002.6,N
1526136995.6,286047002.5,N
1526137015.5,286047001.5,N
1526137035.3,286047002.7,N
1526137055.1,286047000.4,N
1526137075.9,286047001.0,N
1526137095.7,286046999.8,N
1526137115.6,286046999.8,N
1526137135.4,286046999.9,N
1526137155.2,286047001.1,N
1526137175.1,286046998.3,N
1526137176.0,286046998.3,N
1526137195.8,286046998.4,N
